This is the latest recevied weather packets stored in our database for station/object KB1RMA-4. If no packets are shown the sender has not sent any weather packets the latest 1 day(s).
| Time | Temp. | Humidity | Pressure | Rain* | Wind** | Luminosity | Snow |
|---|---|---|---|---|---|---|---|
| 1778005096 | 29.44° C | 30% | 1006.7 hPa | 0 mm | 3.58 m/s, 209° | 697 W/m² | - |
| 1778004794 | 29.44° C | 30% | 1006.5 hPa | 0 mm | 0.45 m/s, 271° | 700 W/m² | - |
| 1778004490 | 29.44° C | 30% | 1006.6 hPa | 0 mm | 0.89 m/s, 243° | 708 W/m² | - |
| 1778004187 | 30° C | 30% | 1006.5 hPa | 0 mm | 1.34 m/s, 149° | 715 W/m² | - |
| 1778003883 | 30° C | 30% | 1006.5 hPa | 0 mm | 0 m/s | 701 W/m² | - |
| 1778003580 | 30° C | 30% | 1006.7 hPa | 0 mm | 0.45 m/s, 285° | 698 W/m² | - |
| 1778003276 | 29.44° C | 30% | 1006.9 hPa | 0 mm | 0 m/s | 688 W/m² | - |
| 1778002973 | 30° C | 30% | 1007.1 hPa | 0 mm | 0.45 m/s, 212° | 711 W/m² | - |
| 1778002669 | 29.44° C | 30% | 1006.8 hPa | 0 mm | 0.89 m/s, 271° | 709 W/m² | - |
| 1778002366 | 29.44° C | 29% | 1007.3 hPa | 0 mm | 2.68 m/s, 231° | 713 W/m² | - |
| 1778002063 | 29.44° C | 30% | 1007.1 hPa | 0 mm | 0.89 m/s, 233° | 717 W/m² | - |
| 1778001760 | 29.44° C | 30% | 1007.4 hPa | 0 mm | 0.45 m/s, 274° | 719 W/m² | - |
| 1778001460 | 29.44° C | 30% | 1007.3 hPa | 0 mm | 0.45 m/s, 267° | 727 W/m² | - |
| 1778001157 | 29.44° C | 30% | 1007.7 hPa | 0 mm | 1.34 m/s, 225° | 733 W/m² | - |
| 1778000854 | 28.89° C | 30% | 1007.5 hPa | 0 mm | 0 m/s | 731 W/m² | - |
| 1778000551 | 28.89° C | 31% | 1007.6 hPa | 0 mm | 0.45 m/s, 229° | 741 W/m² | - |
| 1778000246 | 28.89° C | 32% | 1007.6 hPa | 0 mm | 0 m/s | 746 W/m² | - |
| 1777999942 | 28.89° C | 31% | 1007.9 hPa | 0 mm | 0.45 m/s, 276° | 741 W/m² | - |
| 1777999638 | 28.33° C | 32% | 1007.7 hPa | 0 mm | 0.89 m/s, 172° | 727 W/m² | - |
| 1777999335 | 28.89° C | 33% | 1008.1 hPa | 0 mm | 1.34 m/s, 245° | 738 W/m² | - |
| 1777999034 | 28.33° C | 33% | 1008.2 hPa | 0 mm | 0.45 m/s, 307° | 744 W/m² | - |
| 1777998732 | 28.33° C | 34% | 1008.3 hPa | 0 mm | 0 m/s | 725 W/m² | - |
| 1777998429 | 28.33° C | 34% | 1008.3 hPa | 0 mm | 0 m/s | 711 W/m² | - |
| 1777998126 | 27.78° C | 34% | 1008.6 hPa | 0 mm | 0 m/s | 700 W/m² | - |
| 1777997822 | 27.78° C | 35% | 1008.5 hPa | 0 mm | 1.34 m/s, 285° | 689 W/m² | - |
* Rain latest hour (hover to see other rain measurements)
** Current wind speed in m/s (hover to see current wind gust speed)